TimeCDT,TemperatureF,Dew PointF,Humidity,Sea Level PressureIn,VisibilityMPH,Wind Direction,Wind SpeedMPH,Gust SpeedMPH,PrecipitationIn,Events,Conditions,WindDirDegrees,DateUTC
12:54 AM,64.9,54.0,68,29.85,10.0,SE,12.7,-,N/A,,Clear,140,2013-06-04 05:54:00
1:54 AM,64.0,54.0,70,29.84,10.0,SE,10.4,-,N/A,,Clear,130,2013-06-04 06:54:00
2:54 AM,63.0,55.0,75,29.86,10.0,SE,9.2,-,N/A,,Scattered Clouds,130,2013-06-04 07:54:00
3:54 AM,63.0,55.0,75,29.85,10.0,SE,10.4,-,N/A,,Mostly Cloudy,130,2013-06-04 08:54:00
4:54 AM,63.0,55.0,75,29.84,10.0,SE,9.2,-,N/A,,Partly Cloudy,140,2013-06-04 09:54:00
5:54 AM,63.0,55.0,75,29.86,10.0,SSE,3.5,-,N/A,,Scattered Clouds,160,2013-06-04 10:54:00
6:54 AM,62.1,55.9,80,29.90,10.0,ESE,4.6,-,0.00,,Clear,110,2013-06-04 11:54:00
7:54 AM,61.0,55.9,83,29.85,10.0,ESE,12.7,-,0.00,,Partly Cloudy,120,2013-06-04 12:54:00
8:54 AM,63.0,57.0,81,29.86,10.0,SE,6.9,-,N/A,,Clear,140,2013-06-04 13:54:00
9:54 AM,66.0,57.9,75,29.91,10.0,SSE,8.1,-,N/A,,Clear,160,2013-06-04 14:54:00
10:18 AM,64.4,57.2,77,29.93,10.0,Calm,Calm,-,N/A,,Mostly Cloudy,0,2013-06-04 15:18:00
10:54 AM,66.0,59.0,78,29.91,10.0,Calm,Calm,-,N/A,,Overcast,0,2013-06-04 15:54:00
11:54 AM,68.0,59.0,73,29.93,9.0,Calm,Calm,-,N/A,,Overcast,0,2013-06-04 16:54:00
12:54 PM,69.1,60.1,73,29.91,9.0,ENE,4.6,-,N/A,,Overcast,60,2013-06-04 17:54:00
1:01 PM,69.8,60.8,73,29.92,9.0,ENE,6.9,-,N/A,,Overcast,60,2013-06-04 18:01:00
1:54 PM,70.0,60.1,71,29.90,9.0,SE,5.8,-,N/A,,Overcast,130,2013-06-04 18:54:00
2:54 PM,73.0,61.0,66,29.90,9.0,Calm,Calm,-,N/A,,Mostly Cloudy,0,2013-06-04 19:54:00
3:54 PM,75.9,61.0,60,29.90,9.0,NNW,8.1,-,N/A,,Overcast,330,2013-06-04 20:54:00
4:54 PM,75.9,62.1,62,29.90,9.0,NNW,6.9,-,N/A,,Mostly Cloudy,340,2013-06-04 21:54:00
5:54 PM,73.9,61.0,64,29.89,9.0,North,9.2,-,N/A,,Mostly Cloudy,360,2013-06-04 22:54:00
6:54 PM,73.0,62.1,68,29.90,9.0,NNE,10.4,-,N/A,,Overcast,20,2013-06-04 23:54:00
7:54 PM,71.1,63.0,75,29.93,8.0,North,8.1,-,N/A,,Overcast,10,2013-06-05 00:54:00
8:54 PM,70.0,63.0,78,29.94,9.0,North,6.9,-,N/A,,Overcast,360,2013-06-05 01:54:00
9:54 PM,68.0,64.0,87,29.96,8.0,NE,10.4,-,0.00,,Overcast,40,2013-06-05 02:54:00
10:03 PM,68.0,62.6,83,29.98,7.0,NNE,6.9,-,N/A,,Overcast,30,2013-06-05 03:03:00
10:26 PM,66.2,62.6,88,30.00,7.0,NNE,5.8,-,0.00,Rain,Light Rain,30,2013-06-05 03:26:00
10:54 PM,66.9,64.0,90,29.98,7.0,NE,5.8,-,0.00,,Overcast,40,2013-06-05 03:54:00
11:54 PM,64.9,63.0,93,29.97,5.0,North,6.9,-,N/A,,Overcast,10,2013-06-05 04:54:00